Погода в Шидрове

Россия / Архангельская область     62°47′17″N   42°52′39″E
темп.,
°C
ветер,
м/с
пор.,
м/с
влажн.,
%
обл.,
%
осадки,
мм/ч
давл.,
гПа
погр.,
м
1 августа, вс
вс100:00+12ююз269979 0.1 997221
03:00+11зюз249920 0.1 99988
06:00+13зюз269673 0.0 1001220
09:00+17з25796 0.0 1002521
12:00+23зюз354511 0.0 10031836
15:00+22ююз3753100 0.0 1003623
18:00+21ююз146649 0.1 1003233
21:00+17ю268097 0.1 1003123
2 августа, пн
пн200:00+15ююз2998100 1.9 1003289
03:00+14ю27100100 3.3 1003255
06:00+15ююз279746 0.2 1004352
09:00+17зюз358488 0.2 1005632
12:00+23юз3551100 0.0 10051649
15:00+23юз365199 0.3 10051472
18:00+23юз255895 0.0 1005872
21:00+17юв118086 0.0 100511
3 августа, вт
вт300:00+16вюв228795 0.0 100539
03:00+17вюв2785100 0.0 1003181
06:00+17юв41186100 0.1 1001447
09:00+19ююв51088100 0.4 999629
12:00+18ююв3997100 1.7 998483
15:00+20ю4109299 7.8 998737
18:00+20юз498831 1.1 998914
21:00+15зюз27915 1.1 1001254
4 августа, ср
ср400:00+13ююз2697100 0.0 1003129
03:00+12ююз269797 0.0 1004143
06:00+14юз28865 0.0 1005320
09:00+19зюз35614 0.0 10061059
12:00+19з566247 0.2 10071536
15:00+18з5657100 0.3 10101477
18:00+14зсз4875100 0.0 1013839
21:00+12зсз3781100 0.1 1014626
5 августа, чт
чт500:00+10зсз3780100 0.0 1016529
03:00+10сз2681100 0.0 1017457
06:00+10сз358193 0.0 1018409
09:00+13ссз346586 0.0 1019939
12:00+17сз2347100 0.0 10191836
15:00+17в134357 0.0 10191582
18:00+16юв1254100 0.0 101994
21:00+13ю226183 0.0 101928